EW0734 Weather Reports


Display with metric or nautical units.
time (UTC)temp
F
wind
direction
speed
MPH
gust
MPH
rain 1hr
in
rain 24hr
in
rain mn
in
humidity
%
barometer
mb
20260904105527 0 0.0 0.0 0.00 0.00 0.00
20260904105109 0 0.0 0.0 0.00 0.00 0.00
20260904104522 0 0.0 0.0 0.00 0.00 0.00
20260904104027 0 0.0 0.0 0.00 0.00 0.00
20260904103027 0 0.0 0.0 0.00 0.00 0.00
20260904102545 0 0.0 0.0 0.00 0.00 0.00
20260904102118 0 0.0 0.0 0.00 0.00 0.00
20260904101527 0 0.0 0.0 0.00 0.00 0.00
20260904100547 0 0.0 0.0 0.00 0.00 0.00
20260904100046 0 0.0 0.0 0.00 0.00 0.00
20260904095540 0 0.0 0.0 0.00 0.00 0.00
20260904095047 0 0.0 0.0 0.00 0.00 0.00
20260904094027 0 0.0 0.0 0.00 0.00 0.00
20260904093548 0 0.0 0.0 0.00 0.00 0.00
20260904093022 0 0.0 0.0 0.00 0.00 0.00
20260904092528 0 0.0 0.0 0.00 0.00 0.00
20260904091527 0 0.0 0.0 0.00 0.00 0.00
20260904091051 0 0.0 0.0 0.00 0.00 0.00
20260904090546 0 0.0 0.0 0.00 0.00 0.00
20260904090027 0 0.0 0.0 0.00 0.00 0.00
20260904085027 0 0.0 0.0 0.00 0.00 0.00
20260904084548 0 0.0 0.0 0.00 0.00 0.00
20260904084021 0 0.0 0.0 0.00 0.00 0.00
20260904083528 0 0.0 0.0 0.00 0.00 0.00
20260904082527 0 0.0 0.0 0.00 0.00 0.00
20260904082048 0 0.0 0.0 0.00 0.00 0.00
20260904081543 0 0.0 0.0 0.00 0.00 0.00
20260904081027 0 0.0 0.0 0.00 0.00 0.00
20260904080027 0 0.0 0.0 0.00 0.00 0.00
20260904075540 0 0.0 0.0 0.00 0.00 0.00
20260904075015 0 0.0 0.0 0.00 0.00 0.00
20260904074527 0 0.0 0.0 0.00 0.00 0.00
20260904073528 0 0.0 0.0 0.00 0.00 0.00
20260904073009 0 0.0 0.0 0.00 0.00 0.00
20260904072625 0 0.0 0.0 0.00 0.00 0.00
20260904072027 0 0.0 0.0 0.00 0.00 0.00
20260904071027 0 0.0 0.0 0.00 0.00 0.00
20260904070518 0 0.0 0.0 0.00 0.00 0.00 78
20260904070112 71 0.0 0.0 0.00 0.00 0.00 78 1011.6
20260904065029 72 0.0 0.0 0.00 0.00 0.00 77 1011.6
20260904064029 72 0.0 0.0 0.00 0.00 0.00 80 1011.6
20260904063029 72 0.0 0.0 0.00 0.00 0.00 83 1011.8
20260904062028 72 0.0 0.0 0.00 0.00 0.00 83 1011.8
20260904061028 72 0.0 0.0 0.00 0.00 0.00 85 1012.0
20260904060028 72 0.0 0.0 0.00 0.00 0.00 88 1011.9
20260904055028 73 0.0 0.0 0.00 0.00 0.00 89 1012.4
20260904054029 73 0.0 0.0 0.00 0.00 0.00 91 1012.6
20260904053029 73 0.0 0.0 0.00 0.00 0.00 92 1012.9
20260904052030 74 0.0 0.0 0.00 0.00 0.00 92 1013.6
20260904051029 75 0.0 0.0 0.00 0.00 0.00 90 1014.2
20260904050030 77 0.0 0.0 0.00 0.00 0.00 86 1014.6
20260904045028 78 0.0 1.0 0.00 0.00 0.00 84 1014.7
20260904044108 79 0.0 0.0 0.00 0.00 0.00 85 1014.7
20260904043028 80 0.0 0.0 0.00 0.00 0.00 92 1013.8
20260904042028 80 0.0 0.0 0.00 0.00 0.00 85 1012.7
20260904041028 79 0.0 0.0 0.00 0.00 0.00 83 1012.8
20260904040028 79 0.0 0.0 0.00 0.00 0.00 83 1012.8
20260904035028 79 0.0 0.0 0.00 0.00 0.00 83 1012.6
20260904034029 79 0.0 0.0 0.00 0.00 0.00 85 1012.4
20260904033029 79 0.0 0.0 0.00 0.00 0.00 84 1012.3
20260904032049 79 0.0 0.0 0.00 0.00 0.00 84 1012.1
20260904031029 79 0.0 0.0 0.00 0.00 0.00 86 1012.0
20260904030049 79 0.0 0.0 0.00 0.00 0.00 86 1012.1
20260904025029 79 0.0 0.0 0.00 0.00 0.00 87 1012.2
20260904024028 80 0.0 0.0 0.00 0.00 0.00 88 1012.2
20260904023109 80 0.0 0.0 0.00 0.00 0.00 89 1012.3
20260904022029 80 0.0 0.0 0.00 0.00 0.00 88 1012.3
20260904021029 79 0.0 0.0 0.00 0.00 0.00 89 1012.5
20260904020048 79 0.0 0.0 0.00 0.00 0.00 90 1012.6
20260904015028 79 0.0 0.0 0.00 0.00 0.00 91 1012.5
20260904014028 79 0.0 0.0 0.00 0.00 0.00 91 1012.3
20260904013028 79 0.0 0.0 0.00 0.00 0.00 91 1012.4
20260904012028 80 0.0 0.0 0.00 0.00 0.00 92 1012.5
20260904011048 80 0.0 0.0 0.00 0.00 0.00 92 1012.7
20260904010028 80 0.0 0.0 0.00 0.00 0.00 92 1012.9
20260904005028 80 0.0 0.0 0.00 0.00 0.00 92 1013.0
20260904004028 80 0.0 0.0 0.00 0.00 0.00 92 1013.2
20260904003050 81 0.0 0.0 0.00 0.00 0.00 92 1013.1
20260904002028 81 0.0 0.0 0.00 0.00 0.00 91 1013.0
20260904001028 81 0.0 0.0 0.00 0.00 0.00 90 1013.0
20260904000028 82 0.0 0.0 0.00 0.00 0.00 90 1012.9
20260903235028 82 0.0 0.0 0.00 0.00 0.00 88 1012.8
20260903234029 83 0.0 0.0 0.00 0.00 0.00 88 1012.5
20260903233028 84 0.0 0.0 0.00 0.00 0.00 86 1012.7
20260903232029 84 0.0 0.0 0.00 0.00 0.00 85 1012.6
20260903231028 85 0.0 0.0 0.00 0.00 0.00 83 1012.6
20260903230029 86 0.0 0.0 0.00 0.00 0.00 82 1012.4
20260903225028 87 0.0 0.0 0.00 0.00 0.00 80 1012.3
20260903224032 87 0.0 0.0 0.00 0.00 0.00 78 1012.4
20260903223028 87 0.0 0.0 0.00 0.00 0.00 78 1012.2
20260903222028 88 0.0 0.0 0.00 0.00 0.00 79 1012.1
20260903221048 88 0.0 0.0 0.00 0.00 0.00 77 1012.1
20260903220029 88 0.0 0.0 0.00 0.00 0.00 75 1012.3
20260903215028 88 0.0 0.0 0.00 0.00 0.00 74 1012.3
20260903214028 88 0.0 0.0 0.00 0.00 0.00 75 1012.5
20260903213027 89 0.0 0.0 0.00 0.00 0.00 75 1012.5
20260903212028 89 0.0 0.0 0.00 0.00 0.00 74 1012.5
20260903211033 89 0.0 0.0 0.00 0.00 0.00 73 1012.7
20260903210027 89 0.0 0.0 0.00 0.00 0.00 73 1012.8
20260903205028 89 0.0 0.0 0.00 0.00 0.00 71 1012.8
20260903204028 90 0.0 0.0 0.00 0.00 0.00 70 1012.9
20260903203028 91 0.0 0.0 0.00 0.00 0.00 70 1012.9
20260903202029 90 0.0 0.0 0.00 0.00 0.00 71 1013.2
20260903201050 89 0.0 0.0 0.00 0.00 0.00 72 1013.3
20260903200050 89 0.0 0.0 0.00 0.00 0.00 75 1013.5
20260903195030 89 0.0 0.0 0.00 0.00 0.00 75 1013.6
20260903194030 89 0.0 0.0 0.00 0.00 0.00 76 1013.6
20260903193030 88 0.0 0.0 0.00 0.00 0.00 78 1013.8
20260903192049 88 0.0 0.0 0.00 0.00 0.00 78 1014.0
20260903191030 88 0.0 0.0 0.00 0.00 0.00 79 1013.9
20260903190030 88 0.0 0.0 0.00 0.00 0.00 79 1013.9
20260903185030 88 0.0 0.0 0.00 0.00 0.00 79 1014.1
20260903184030 88 0.0 0.0 0.00 0.00 0.00 78 1014.3
20260903183050 87 0.0 0.0 0.00 0.00 0.00 76 1014.3
20260903182029 88 0.0 0.0 0.00 0.00 0.00 78 1014.6
20260903181030 88 0.0 0.0 0.00 0.00 0.00 77 1014.7
20260903180029 88 0.0 0.0 0.00 0.00 0.00 76 1014.9
20260903175030 88 0.0 0.0 0.00 0.00 0.00 77 1014.9
20260903174530 88 0.0 0.0 0.00 0.00 0.00 76 1014.9
20260903173529 88 0.0 0.0 0.00 0.00 0.00 75 1015.1
20260903172530 88 0.0 0.0 0.00 0.00 0.00 76 1015.4
20260903171530 87 0.0 0.0 0.00 0.00 0.00 79 1015.6
20260903170529 86 0.0 0.0 0.00 0.00 0.00 80 1015.8
20260903165529 85 0.0 0.0 0.00 0.00 0.00 81 1015.9
20260903164530 85 0.0 0.0 0.00 0.00 0.00 80 1015.7
20260903163529 85 0.0 0.0 0.00 0.00 0.00 80 1015.7
20260903162529 85 0.0 0.0 0.00 0.00 0.00 80 1015.9
20260903161529 84 0.0 0.0 0.00 0.00 0.00 85 1016.2
20260903160528 83 0.0 0.0 0.00 0.00 0.00 84 1016.2
20260903155529 82 0.0 0.0 0.00 0.00 0.00 88 1016.2
20260903154530 80 0.0 0.0 0.00 0.00 0.00 91 1016.4
20260903153529 78 0.0 0.0 0.00 0.00 0.00 91 1016.6
20260903152529 78 0.0 0.0 0.00 0.00 0.00 92 1016.6
20260903151529 78 0.0 0.0 0.00 0.00 0.00 92 1016.5
20260903150528 77 0.0 0.0 0.00 0.00 0.00 92 1016.3
20260903145529 77 0.0 0.0 0.00 0.00 0.00 91 1016.3
20260903144529 77 0.0 0.0 0.00 0.00 0.00 91 1016.1
20260903143529 76 0.0 0.0 0.00 0.00 0.00 89 1016.0
20260903142529 76 0.0 0.0 0.00 0.00 0.00 90 1016.2
20260903141530 76 0.0 0.0 0.00 0.00 0.00 89 1016.2
20260903140530 76 0.0 0.0 0.00 0.00 0.00 88 1016.2
20260903135630 75 0.0 0.0 0.00 0.00 0.00 86 1016.2
20260903134529 75 0.0 0.0 0.00 0.00 0.00 86 1016.1
20260903133529 75 0.0 0.0 0.00 0.00 0.00 83 1016.0
20260903132529 75 0.0 0.0 0.00 0.00 0.00 80 1016.3
20260903131529 75 0.0 0.0 0.00 0.00 0.00 81 1016.4
20260903130547 75 0.0 0.0 0.00 0.00 0.00 81 1016.6
20260903125529 74 0.0 0.0 0.00 0.00 0.00 70 1016.7
20260903124529 74 0.0 0.0 0.00 0.00 0.00 65 1016.7
20260903123529 74 0.0 0.0 0.00 0.00 0.00 67 1016.7
20260903122529 74 0.0 0.0 0.00 0.00 0.00 65 1016.5
20260903121549 74 0.0 0.0 0.00 0.00 0.00 53 1016.3
20260903120529 74 0.0 0.0 0.00 0.00 0.00 52 1016.1
20260903115529 74 0.0 0.0 0.00 0.00 0.00 51 1015.9
20260903114529 73 0.0 0.0 0.00 0.00 0.00 52 1015.9
20260903114129 0 0.0 0.0 0.00 0.00 0.00
20260903113527 0 0.0 0.0 0.00 0.00 0.00
20260903112528 0 0.0 0.0 0.00 0.00 0.00
20260903112031 0 0.0 0.0 0.00 0.00 0.00
20260903111626 0 0.0 0.0 0.00 0.00 0.00
20260903111027 0 0.0 0.0 0.00 0.00 0.00